NKS787 TJSJ-TJSJ

Flight info

Callsign NKS787
Flight time 0h 14m
Altitude 38000
Route GLADA3 NUBUS DCT THANK SAALR2
Aircraft A20N/M-SDE2E3FGHIRWXY/LB1

Departure

Time 2026-05-05 20:56
Airport Luis Munoz Marin International Airport (TJSJ)

Arrival

Time 2026-05-05 21:11
Airport Luis Munoz Marin International Airport (TJSJ)
Time Latitude Longitude Altitude Speed Heading
2026-05-05 20:47 18.43548 -66.00699 21 ft 0 kts
2026-05-05 20:50 18.43549 -66.00699 19 ft 1 kts
2026-05-05 20:50 18.43554 -66.00699 19 ft 2 kts
2026-05-05 20:50 18.43533 -66.00699 23 ft 2 kts
2026-05-05 20:50 18.43516 -66.00700 21 ft 2 kts
2026-05-05 20:51 18.43500 -66.00701 23 ft 2 kts 338°
2026-05-05 20:51 18.43488 -66.00690 20 ft 2 kts 271°
2026-05-05 20:51 18.43488 -66.00685 21 ft 0 kts 249°
2026-05-05 20:53 18.43487 -66.00685 21 ft 0 kts 251°
2026-05-05 20:53 18.43488 -66.00690 20 ft 0 kts 270°
2026-05-05 20:53 18.43488 -66.00694 20 ft 2 kts 266°
2026-05-05 20:53 18.43480 -66.00800 19 ft 16 kts 266°
2026-05-05 20:54 18.43472 -66.00886 19 ft 20 kts 265°
2026-05-05 20:54 18.43468 -66.01028 20 ft 21 kts 270°
2026-05-05 20:54 18.43468 -66.01191 20 ft 14 kts 270°
2026-05-05 20:54 18.43468 -66.01213 20 ft 9 kts 269°
2026-05-05 20:55 18.43466 -66.01305 20 ft 10 kts 269°
2026-05-05 20:55 18.43387 -66.01353 21 ft 19 kts 162°
2026-05-05 20:55 18.43354 -66.01127 20 ft 68 kts 91°
2026-05-05 20:55 18.43353 -66.00327 18 ft 145 kts 89°
2026-05-05 20:56 18.43325 -65.99113 376 ft 174 kts 96°
2026-05-05 20:56 18.43358 -65.97841 1309 ft 173 kts 87°
2026-05-05 20:56 18.43528 -65.96580 2300 ft 175 kts 82°
2026-05-05 20:56 18.43758 -65.95280 3047 ft 190 kts 91°
2026-05-05 20:57 18.43738 -65.93314 3916 ft 210 kts 95°
2026-05-05 20:57 18.43712 -65.92262 4288 ft 215 kts 93°
2026-05-05 20:57 18.43682 -65.90674 4901 ft 222 kts 89°
2026-05-05 20:57 18.44192 -65.89140 5044 ft 228 kts 58°
2026-05-05 20:58 18.45317 -65.87961 5067 ft 234 kts 33°
2026-05-05 20:58 18.46910 -65.87539 5074 ft 243 kts
2026-05-05 20:58 18.48598 -65.87662 5069 ft 244 kts 355°
2026-05-05 20:58 18.50251 -65.87883 5070 ft 244 kts 351°
2026-05-05 20:59 18.51914 -65.88429 5071 ft 246 kts 340°
2026-05-05 20:59 18.53500 -65.89114 5071 ft 248 kts 332°
2026-05-05 20:59 18.54747 -65.90332 5067 ft 247 kts 298°
2026-05-05 20:59 18.55226 -65.92015 5068 ft 243 kts 268°
2026-05-05 21:00 18.55149 -65.93794 5078 ft 242 kts 263°
2026-05-05 21:00 18.54945 -65.95546 5069 ft 240 kts 259°
2026-05-05 21:00 18.54747 -65.97298 5072 ft 241 kts 260°
2026-05-05 21:00 18.54521 -65.99047 5063 ft 240 kts 255°
2026-05-05 21:01 18.54164 -66.00756 5062 ft 238 kts 252°
2026-05-05 21:01 18.53770 -66.02455 5063 ft 237 kts 254°
2026-05-05 21:01 18.53363 -66.04132 5049 ft 237 kts 252°
2026-05-05 21:01 18.52957 -66.05819 5051 ft 238 kts 252°
2026-05-05 21:02 18.52551 -66.07514 5055 ft 239 kts 254°
2026-05-05 21:02 18.52127 -66.09201 5035 ft 237 kts 253°
2026-05-05 21:02 18.51715 -66.10865 4705 ft 239 kts 253°
2026-05-05 21:02 18.51298 -66.12582 4401 ft 238 kts 253°
2026-05-05 21:03 18.50895 -66.14248 4086 ft 238 kts 251°
2026-05-05 21:03 18.50500 -66.15938 3809 ft 236 kts 253°
2026-05-05 21:03 18.50103 -66.17601 3540 ft 233 kts 253°
2026-05-05 21:03 18.49727 -66.19262 3250 ft 233 kts 253°
2026-05-05 21:04 18.49352 -66.20914 3073 ft 231 kts 253°
2026-05-05 21:04 18.48817 -66.22490 3046 ft 227 kts 231°
2026-05-05 21:04 18.47751 -66.23683 3057 ft 222 kts 214°
2026-05-05 21:04 18.46450 -66.24513 3053 ft 218 kts 200°
2026-05-05 21:05 18.45007 -66.24800 3053 ft 211 kts 165°
2026-05-05 21:05 18.43811 -66.24009 3055 ft 203 kts 123°
2026-05-05 21:05 18.43452 -66.22655 3070 ft 187 kts 97°
2026-05-05 21:05 18.43406 -66.21336 3039 ft 172 kts 95°
2026-05-05 21:06 18.43396 -66.20141 3033 ft 156 kts 94°
2026-05-05 21:06 18.43391 -66.19043 3016 ft 147 kts 94°
2026-05-05 21:06 18.43388 -66.17992 2933 ft 143 kts 96°
2026-05-05 21:06 18.43385 -66.16950 2771 ft 142 kts 94°
2026-05-05 21:07 18.43383 -66.15916 2600 ft 139 kts 95°
2026-05-05 21:07 18.43381 -66.14894 2439 ft 139 kts 95°
2026-05-05 21:07 18.43379 -66.13886 2241 ft 141 kts 96°
2026-05-05 21:07 18.43377 -66.12848 2058 ft 142 kts 94°
2026-05-05 21:08 18.43376 -66.11806 1901 ft 142 kts 92°
2026-05-05 21:08 18.43374 -66.10764 1707 ft 143 kts 96°
2026-05-05 21:08 18.43372 -66.09721 1514 ft 142 kts 95°
2026-05-05 21:08 18.43371 -66.08689 1340 ft 138 kts 97°
2026-05-05 21:09 18.43369 -66.07692 1174 ft 136 kts 95°
2026-05-05 21:09 18.43367 -66.06698 999 ft 135 kts 90°
2026-05-05 21:09 18.43373 -66.05684 812 ft 138 kts 97°
2026-05-05 21:09 18.43389 -66.04686 728 ft 135 kts 95°
2026-05-05 21:10 18.43386 -66.03683 529 ft 134 kts 98°
2026-05-05 21:10 18.43351 -66.02692 299 ft 134 kts 94°
2026-05-05 21:10 18.43364 -66.01686 123 ft 139 kts 96°
2026-05-05 21:10 18.43345 -66.00730 22 ft 116 kts 93°
2026-05-05 21:11 18.43353 -66.00183 18 ft 41 kts 90°
2026-05-05 21:11 18.43384 -65.99924 21 ft 20 kts 40°
2026-05-05 21:11 18.43416 -65.99891 20 ft 0 kts 51°
2026-05-05 21:11 18.43417 -65.99889 19 ft 1 kts 51°
2026-05-05 21:12 18.43431 -65.99871 20 ft 5 kts 52°
2026-05-05 21:12 18.43454 -65.99832 19 ft 8 kts 64°
2026-05-05 21:12 18.43463 -65.99767 19 ft 10 kts 88°
2026-05-05 21:12 18.43464 -65.99682 19 ft 13 kts 90°
2026-05-05 21:13 18.43464 -65.99579 19 ft 15 kts 90°
2026-05-05 21:13 18.43464 -65.99456 19 ft 18 kts 90°
2026-05-05 21:13 18.43462 -65.99317 18 ft 21 kts 92°
2026-05-05 21:13 18.43461 -65.99164 20 ft 21 kts 89°
2026-05-05 21:14 18.43444 -65.99082 20 ft 0 kts 147°
2026-05-05 21:14 18.43439 -65.99081 20 ft 4 kts 162°
2026-05-05 21:14 18.43342 -65.99074 18 ft 18 kts 180°
2026-05-05 21:14 18.43277 -65.99074 17 ft 0 kts 178°
2026-05-05 21:15 18.43262 -65.99073 17 ft 4 kts 176°
2026-05-05 21:15 18.43231 -65.99056 18 ft 7 kts 153°
2026-05-05 21:15 18.43198 -65.99050 18 ft 3 kts 176°
2026-05-05 21:15 18.43184 -65.99049 18 ft 0 kts 178°